This demonstration page uses our WeatherBlox Daily Observations layout. Learn more.

Left ArrowRight Arrow

44.8408, -93.29828

Hourly Observations for July 8, 2016

Temp ( °F °C ) Dew Point ( °F °C ) Humidity (%) Winds ( mph kmh ) Pressure ( in mb ) Visibility ( mi km ) Precip ( " mm )
12:53 am 00:53 Mostly Clear 71 21.7 64 17.8 79 79 W 7 11 29.78 1008 10 16 0.00 0.00
1:53 am 01:53 Mostly Clear 70 21.1 65 18.3 84 84 WSW 7 11 29.77 1008 10 16 0.00 0.00
2:53 am 02:53 Mostly Clear 69 20.6 64 17.8 84 84 W 8 13 29.77 1008 10 16 0.00 0.00
3:53 am 03:53 Mostly Clear 68 20 63 17.2 84 84 WSW 7 11 29.76 1008 10 16 0.00 0.00
4:53 am 04:53 Mostly Cloudy 67 19.4 62 16.7 84 84 SW 7 11 29.76 1008 10 16 0.00 0.00
5:53 am 05:53 Mostly Cloudy 67 19.4 62 16.7 84 84 WSW 8 13 29.77 1008 10 16 0.00 0.00
6:53 am 06:53 Partly Cloudy 67 19.4 61 16.1 81 81 WSW 9 15 29.78 1009 10 16 0.00 0.00
7:53 am 07:53 Mostly Sunny 68 20 59 15 73 73 W 13 20 29.79 1009 10 16 0.00 0.00
8:53 am 08:53 Partly Cloudy 71 21.7 57 13.9 61 61 WNW 20 31 29.81 1010 10 16 0.00 0.00
9:53 am 09:53 Mostly Cloudy 70 21.1 57 13.9 64 64 WNW 21 33 29.83 1010 10 16 0.00 0.00
10:53 am 10:53 Cloudy 70 21.1 57 13.9 64 64 WNW 21 33 29.84 1011 10 16 0.00 0.00
11:10 am 11:10 Cloudy 70 21 57 14 64 64 WNW 18 30 29.85 1011 10 16 0.00 0.00
11:25 am 11:25 Cloudy 72 22.2 58 14.4 61 61 WNW 22 35 29.83 1010 10 16 0.00 0.00
11:53 am 11:53 Mostly Cloudy 70 21.1 58 14.4 66 66 NW 20 31 29.86 1011 10 16 0.00 0.00
12:53 pm 12:53 Mostly Cloudy 74 23.3 59 15 60 60 WNW 22 35 29.86 1011 10 16 0.00 0.00
1:53 pm 13:53 Cloudy 74 23.3 58 14.4 57 57 NW 17 28 29.87 1012 10 16 0.00 0.00
2:53 pm 14:53 Mostly Cloudy 76 24.4 59 15 56 56 NW 18 30 29.88 1012 10 16 0.00 0.00
3:53 pm 15:53 Mostly Cloudy 78 25.6 60 15.6 54 54 NW 16 26 29.89 1012 10 16 0.00 0.00
4:53 pm 16:53 Mostly Cloudy 79 26.1 60 15.6 52 52 NW 17 28 29.90 1012 10 16 0.00 0.00
5:53 pm 17:53 Mostly Cloudy 78 25.6 59 15 52 52 NW 12 19 29.91 1013 10 16 0.00 0.00
6:53 pm 18:53 Mostly Cloudy 79 26.1 58 14.4 49 49 NNW 15 24 29.91 1013 10 16 0.00 0.00
7:53 pm 19:53 Cloudy 77 25 57 13.9 50 50 N 14 22 29.92 1013 10 16 0.00 0.00
8:53 pm 20:53 Partly Cloudy 74 23.3 58 14.4 57 57 N 10 17 29.94 1014 10 16 0.00 0.00
9:53 pm 21:53 Mostly Clear 73 22.8 58 14.4 59 59 NNE 10 17 29.96 1015 10 16 0.00 0.00
10:53 pm 22:53 Mostly Clear 71 21.7 59 15 66 66 NNE 5 7 29.98 1015 10 16 0.00 0.00
11:53 pm 23:53 Clear 69 20.6 59 15 70 70 N 6 9 29.99 1016 10 16 0.00 0.00

Powered by AerisWeather